sat.trackr.live / text

‹ back to catalog

BADR-5

NORAD 36592 · 2010-025A

PAYLOAD ACTIVE UNKNOWN

§ Identity

Operator
Country
AB
Launch date
2010-06-03
Launch site
TYMSC
Launch vehicle
Mass (kg)
RCS (m²)
15.85

Purposes: comms

External: N2YO · Heavens-Above · Gunter

§ Orbital elements

Epoch: 2026-05-25T03:53:16.431936Z

Period
1,436.11 min
Inclination
0.0626°
Eccentricity
0.0002145
Mean motion
1.00271140 rev/d
Perigee alt
35,777.7 km
Apogee alt
35,795.8 km
Semi-major
42,164.9 km
B*
0.0000e+0
RAAN
111.2371°
Arg perigee
83.0715°
Mean anomaly
137.1645°
Rev number
5,298

§ Raw data

BADR-51 36592U 10025A   26145.16199574  .00000151  00000+0  00000+0 0  99982 36592   0.0626 111.2371 0002145  83.0715 137.1645  1.00271140 52980

JSON: /api/v1/satellites/36592 · /tle

For live sub-satellite position, see the globe view (requires WebGL).

§ Visibility from observer

Set your observer location to see the next 7 days of passes ≥ 10°. The values pass through the URL so the page stays shareable.

No JS? Fill the form by hand. The geolocation button needs JavaScript.